| time (UTC) | temp F | wind direction | speed MPH | gust MPH | rain 1hr in | rain 24hr in | rain mn in | humidity % | barometer mb |
| 20260831163508 | 85 | 273 | 0.0 | 4.0 | 0.00 | 0.00 | 0.00 | 66 | 1021.6 |
| 20260831163007 | 85 | 214 | 0.0 | 3.0 | 0.00 | 0.00 | 0.00 | 69 | 1021.7 |
| 20260831162506 | 85 | 94 | 0.0 | 4.0 | 0.00 | 0.00 | 0.00 | 69 | 1021.7 |
| 20260831162006 | 84 | 109 | 2.0 | 4.0 | 0.00 | 0.00 | 0.00 | 69 | 1021.8 |
| 20260831161506 | 85 | 118 | 2.0 | 4.0 | 0.00 | 0.00 | 0.00 | 70 | 1021.9 |
| 20260831161005 | 84 | 84 | 1.0 | 4.0 | 0.00 | 0.00 | 0.00 | 68 | 1021.9 |
| 20260831160504 | 84 | 74 | 0.0 | 4.0 | 0.00 | 0.00 | 0.00 | 76 | 1021.8 |
| 20260831160003 | 84 | 252 | 1.0 | 4.0 | 0.00 | 0.00 | 0.00 | 76 | 1021.8 |
| 20260831155503 | 84 | 264 | 1.0 | 3.0 | 0.00 | 0.00 | 0.00 | 72 | 1021.8 |
| 20260831155000 | 83 | 86 | 0.0 | 3.0 | 0.00 | 0.00 | 0.00 | 76 | 1021.9 |
| 20260831154600 | 82 | 159 | 0.0 | 2.0 | 0.00 | 0.00 | 0.00 | 75 | 1021.9 |
| 20260831154502 | 82 | 167 | 0.0 | 2.0 | 0.00 | 0.00 | 0.00 | 73 | 1022.0 |
| 20260831154201 | 82 | 150 | 0.0 | 2.0 | 0.00 | 0.00 | 0.00 | 74 | 1022.0 |
| 20260831153601 | 82 | 238 | 0.0 | 2.0 | 0.00 | 0.00 | 0.00 | 73 | 1022.0 |
| 20260831153058 | 82 | 309 | 0.0 | 2.0 | 0.00 | 0.00 | 0.00 | 76 | 1022.0 |
| 20260831152558 | 82 | 248 | 0.0 | 4.0 | 0.00 | 0.00 | 0.00 | 78 | 1021.9 |
| 20260831152057 | 81 | 202 | 0.0 | 4.0 | 0.00 | 0.00 | 0.00 | 76 | 1021.9 |
| 20260831151600 | 81 | 82 | 0.0 | 3.0 | 0.00 | 0.00 | 0.00 | 77 | 1022.0 |
| 20260831151058 | 81 | 250 | 0.0 | 3.0 | 0.00 | 0.00 | 0.00 | 81 | 1022.0 |
| 20260831150556 | 80 | 202 | 0.0 | 2.0 | 0.00 | 0.00 | 0.00 | 79 | 1022.0 |
| 20260831150057 | 80 | 197 | 0.0 | 3.0 | 0.00 | 0.00 | 0.00 | 79 | 1022.0 |
| 20260831145553 | 80 | 213 | 0.0 | 4.0 | 0.00 | 0.00 | 0.00 | 84 | 1022.0 |
| 20260831145057 | 79 | 203 | 1.0 | 4.0 | 0.00 | 0.00 | 0.00 | 80 | 1022.2 |
| 20260831144552 | 79 | 224 | 0.0 | 3.0 | 0.00 | 0.00 | 0.00 | 81 | 1022.1 |
| 20260831144052 | 79 | 230 | 0.0 | 3.0 | 0.00 | 0.00 | 0.00 | 81 | 1022.1 |
| 20260831143551 | 79 | 144 | 0.0 | 3.0 | 0.00 | 0.00 | 0.00 | 83 | 1021.9 |
| 20260831143105 | 79 | 113 | 0.0 | 1.0 | 0.00 | 0.00 | 0.00 | 84 | 1021.9 |
| 20260831142550 | 79 | 121 | 0.0 | 3.0 | 0.00 | 0.00 | 0.00 | 84 | 1021.9 |
| 20260831142050 | 79 | 205 | 0.0 | 4.0 | 0.00 | 0.00 | 0.00 | 85 | 1021.8 |
| 20260831141550 | 78 | 256 | 1.0 | 4.0 | 0.00 | 0.00 | 0.00 | 82 | 1021.9 |
| 20260831141047 | 78 | 308 | 0.0 | 3.0 | 0.00 | 0.00 | 0.00 | 84 | 1021.9 |
| 20260831140546 | 77 | 252 | 1.0 | 3.0 | 0.00 | 0.00 | 0.00 | 85 | 1021.9 |
| 20260831140049 | 77 | 222 | 0.0 | 3.0 | 0.00 | 0.00 | 0.00 | 85 | 1021.8 |
| 20260831135544 | 77 | 275 | 1.0 | 3.0 | 0.00 | 0.00 | 0.00 | 85 | 1021.9 |
| 20260831135045 | 76 | 219 | 1.0 | 4.0 | 0.00 | 0.00 | 0.00 | 86 | 1021.9 |
| 20260831134543 | 76 | 251 | 1.0 | 4.0 | 0.00 | 0.00 | 0.00 | 86 | 1022.0 |
| 20260831134040 | 75 | 320 | 1.0 | 4.0 | 0.00 | 0.00 | 0.00 | 88 | 1022.1 |
| 20260831133539 | 75 | 240 | 0.0 | 3.0 | 0.00 | 0.00 | 0.00 | 90 | 1022.0 |
| 20260831133038 | 74 | 236 | 0.0 | 3.0 | 0.00 | 0.00 | 0.00 | 91 | 1022.0 |
| 20260831132537 | 74 | 217 | 0.0 | 2.0 | 0.00 | 0.00 | 0.00 | 91 | 1022.0 |
| 20260831132035 | 74 | 216 | 0.0 | 0.0 | 0.00 | 0.00 | 0.00 | 93 | 1022.1 |
| 20260831131534 | 73 | 234 | 0.0 | 0.0 | 0.00 | 0.00 | 0.00 | 94 | 1022.1 |
| 20260831131033 | 73 | 234 | 0.0 | 2.0 | 0.00 | 0.00 | 0.00 | 94 | 1022.0 |
| 20260831130533 | 72 | 234 | 0.0 | 2.0 | 0.00 | 0.00 | 0.00 | 95 | 1022.0 |
| 20260831130030 | 72 | 216 | 0.0 | 2.0 | 0.00 | 0.00 | 0.00 | 96 | 1022.0 |
| 20260831125529 | 72 | 249 | 0.0 | 0.0 | 0.00 | 0.00 | 0.00 | 97 | 1022.1 |
| 20260831125029 | 71 | 249 | 0.0 | 0.0 | 0.00 | 0.00 | 0.00 | 97 | 1022.1 |
| 20260831124526 | 71 | 249 | 0.0 | 2.0 | 0.00 | 0.00 | 0.00 | 97 | 1022.1 |
| 20260831124025 | 70 | 263 | 1.0 | 2.0 | 0.00 | 0.00 | 0.00 | 98 | 1022.1 |
| 20260831123523 | 70 | 223 | 0.0 | 0.0 | 0.00 | 0.00 | 0.00 | 98 | 1022.1 |
| 20260831123025 | 70 | 223 | 0.0 | 0.0 | 0.00 | 0.00 | 0.00 | 98 | 1022.0 |
| 20260831122523 | 69 | 266 | 0.0 | 0.0 | 0.00 | 0.00 | 0.00 | 98 | 1022.0 |
| 20260831122023 | 68 | 180 | 0.0 | 0.0 | 0.00 | 0.00 | 0.00 | 98 | 1021.9 |
| 20260831121526 | 68 | 180 | 0.0 | 0.0 | 0.00 | 0.00 | 0.00 | 98 | 1022.0 |
| 20260831121023 | 68 | 180 | 0.0 | 0.0 | 0.00 | 0.00 | 0.00 | 98 | 1022.0 |
| 20260831120525 | 67 | 180 | 0.0 | 0.0 | 0.00 | 0.00 | 0.00 | 98 | 1021.9 |
| 20260831120025 | 67 | 180 | 0.0 | 0.0 | 0.00 | 0.00 | 0.00 | 98 | 1021.8 |
| 20260831115521 | 67 | 178 | 0.0 | 0.0 | 0.00 | 0.00 | 0.00 | 98 | 1021.7 |
| 20260831115020 | 67 | 178 | 0.0 | 0.0 | 0.00 | 0.00 | 0.00 | 98 | 1021.8 |
| 20260831114537 | 66 | 178 | 0.0 | 0.0 | 0.00 | 0.00 | 0.00 | 98 | 1021.7 |
| 20260831114020 | 66 | 178 | 0.0 | 0.0 | 0.00 | 0.00 | 0.00 | 98 | 1021.8 |
| 20260831113520 | 66 | 178 | 0.0 | 0.0 | 0.00 | 0.00 | 0.00 | 98 | 1021.7 |
| 20260831113020 | 66 | 178 | 0.0 | 0.0 | 0.00 | 0.00 | 0.00 | 98 | 1021.8 |
| 20260831112519 | 66 | 178 | 0.0 | 0.0 | 0.00 | 0.00 | 0.00 | 98 | 1021.7 |
| 20260831112018 | 65 | 178 | 0.0 | 0.0 | 0.00 | 0.00 | 0.00 | 98 | 1021.7 |
| 20260831111518 | 65 | 178 | 0.0 | 0.0 | 0.00 | 0.00 | 0.00 | 97 | 1021.6 |
| 20260831111020 | 66 | 178 | 0.0 | 0.0 | 0.00 | 0.00 | 0.00 | 98 | 1021.6 |
| 20260831110618 | 65 | 178 | 0.0 | 0.0 | 0.00 | 0.00 | 0.00 | 98 | 1021.5 |
| 20260831110018 | 65 | 178 | 0.0 | 0.0 | 0.00 | 0.00 | 0.00 | 98 | 1021.4 |
| 20260831105518 | 66 | 178 | 0.0 | 0.0 | 0.00 | 0.00 | 0.00 | 98 | 1021.4 |
| 20260831105018 | 66 | 178 | 0.0 | 0.0 | 0.00 | 0.00 | 0.00 | 98 | 1021.5 |
| 20260831104530 | 66 | 178 | 0.0 | 0.0 | 0.00 | 0.00 | 0.00 | 98 | 1021.4 |
| 20260831104017 | 66 | 178 | 0.0 | 0.0 | 0.00 | 0.00 | 0.00 | 98 | 1021.4 |
| 20260831103518 | 66 | 178 | 0.0 | 0.0 | 0.00 | 0.00 | 0.00 | 98 | 1021.4 |
| 20260831103016 | 66 | 178 | 0.0 | 0.0 | 0.00 | 0.00 | 0.00 | 98 | 1021.4 |
| 20260831102517 | 66 | 178 | 0.0 | 0.0 | 0.00 | 0.00 | 0.00 | 98 | 1021.3 |
| 20260831102017 | 66 | 178 | 0.0 | 0.0 | 0.00 | 0.00 | 0.00 | 98 | 1021.3 |
| 20260831101521 | 66 | 178 | 0.0 | 0.0 | 0.00 | 0.00 | 0.00 | 98 | 1021.2 |
| 20260831101016 | 66 | 178 | 0.0 | 0.0 | 0.00 | 0.00 | 0.00 | 98 | 1021.2 |
| 20260831100516 | 66 | 178 | 0.0 | 0.0 | 0.00 | 0.00 | 0.00 | 98 | 1021.3 |
| 20260831100015 | 65 | 178 | 0.0 | 0.0 | 0.00 | 0.00 | 0.00 | 98 | 1021.2 |
| 20260831095514 | 65 | 178 | 0.0 | 0.0 | 0.00 | 0.00 | 0.00 | 98 | 1021.1 |
| 20260831095018 | 65 | 178 | 0.0 | 0.0 | 0.00 | 0.00 | 0.00 | 97 | 1021.1 |
| 20260831094515 | 65 | 178 | 0.0 | 0.0 | 0.00 | 0.00 | 0.00 | 97 | 1021.1 |
| 20260831094013 | 66 | 134 | 0.0 | 0.0 | 0.00 | 0.00 | 0.00 | 98 | 1021.0 |
| 20260831093513 | 66 | 134 | 0.0 | 0.0 | 0.00 | 0.00 | 0.00 | 98 | 1021.0 |
| 20260831093013 | 66 | 134 | 0.0 | 0.0 | 0.00 | 0.00 | 0.00 | 98 | 1021.0 |
| 20260831092516 | 66 | 134 | 0.0 | 0.0 | 0.00 | 0.00 | 0.00 | 98 | 1020.9 |
| 20260831092012 | 66 | 134 | 0.0 | 0.0 | 0.00 | 0.00 | 0.00 | 98 | 1021.0 |
| 20260831091528 | 65 | 134 | 0.0 | 0.0 | 0.00 | 0.00 | 0.00 | 98 | 1020.9 |
| 20260831091013 | 66 | 134 | 0.0 | 0.0 | 0.00 | 0.00 | 0.00 | 98 | 1020.9 |
| 20260831090513 | 66 | 134 | 0.0 | 0.0 | 0.00 | 0.00 | 0.00 | 98 | 1020.9 |
| 20260831090018 | 66 | 134 | 0.0 | 0.0 | 0.00 | 0.00 | 0.00 | 98 | 1021.0 |
| 20260831085513 | 65 | 134 | 0.0 | 0.0 | 0.00 | 0.00 | 0.00 | 97 | 1021.1 |
| 20260831085013 | 66 | 134 | 0.0 | 0.0 | 0.00 | 0.00 | 0.00 | 97 | 1021.1 |
| 20260831084515 | 66 | 134 | 0.0 | 0.0 | 0.00 | 0.00 | 0.00 | 97 | 1021.1 |
| 20260831084010 | 66 | 134 | 0.0 | 0.0 | 0.00 | 0.00 | 0.00 | 97 | 1020.9 |
| 20260831083510 | 66 | 134 | 0.0 | 0.0 | 0.00 | 0.00 | 0.00 | 97 | 1020.9 |
| 20260831083010 | 66 | 134 | 0.0 | 0.0 | 0.00 | 0.00 | 0.00 | 97 | 1020.8 |
| 20260831082509 | 66 | 134 | 0.0 | 0.0 | 0.00 | 0.00 | 0.00 | 97 | 1020.8 |
| 20260831082013 | 66 | 134 | 0.0 | 0.0 | 0.00 | 0.00 | 0.00 | 97 | 1020.8 |
| 20260831081509 | 66 | 134 | 0.0 | 0.0 | 0.00 | 0.00 | 0.00 | 97 | 1020.8 |
| 20260831081108 | 66 | 134 | 0.0 | 0.0 | 0.00 | 0.00 | 0.00 | 97 | 1020.8 |
| 20260831080507 | 66 | 134 | 0.0 | 0.0 | 0.00 | 0.00 | 0.00 | 97 | 1020.8 |
| 20260831080009 | 66 | 134 | 0.0 | 0.0 | 0.00 | 0.00 | 0.00 | 97 | 1020.8 |
| 20260831075506 | 67 | 134 | 0.0 | 0.0 | 0.00 | 0.00 | 0.00 | 97 | 1020.8 |
| 20260831075009 | 66 | 134 | 0.0 | 0.0 | 0.00 | 0.00 | 0.00 | 97 | 1020.8 |
| 20260831074505 | 67 | 134 | 0.0 | 0.0 | 0.00 | 0.00 | 0.00 | 97 | 1020.8 |
| 20260831074005 | 66 | 134 | 0.0 | 0.0 | 0.00 | 0.00 | 0.00 | 97 | 1020.8 |
| 20260831073505 | 66 | 134 | 0.0 | 0.0 | 0.00 | 0.00 | 0.00 | 97 | 1020.8 |
| 20260831073006 | 66 | 134 | 0.0 | 0.0 | 0.00 | 0.00 | 0.00 | 97 | 1020.9 |
| 20260831072504 | 66 | 134 | 0.0 | 0.0 | 0.00 | 0.00 | 0.00 | 97 | 1020.9 |
| 20260831072004 | 67 | 134 | 0.0 | 0.0 | 0.00 | 0.00 | 0.00 | 97 | 1021.0 |
| 20260831071502 | 67 | 134 | 0.0 | 0.0 | 0.00 | 0.00 | 0.00 | 97 | 1021.0 |
| 20260831071002 | 67 | 134 | 0.0 | 0.0 | 0.00 | 0.00 | 0.00 | 97 | 1020.9 |
| 20260831070501 | 67 | 134 | 0.0 | 0.0 | 0.00 | 0.00 | 0.00 | 97 | 1020.9 |
| 20260831070002 | 67 | 134 | 0.0 | 0.0 | 0.00 | 0.00 | 0.00 | 97 | 1020.9 |
| 20260831065601 | 67 | 134 | 0.0 | 0.0 | 0.00 | 0.00 | 0.00 | 97 | 1021.0 |
| 20260831065100 | 67 | 134 | 0.0 | 0.0 | 0.00 | 0.00 | 0.00 | 97 | 1021.0 |
| 20260831064608 | 67 | 134 | 0.0 | 0.0 | 0.00 | 0.00 | 0.00 | 97 | 1021.2 |
| 20260831064058 | 67 | 134 | 0.0 | 0.0 | 0.00 | 0.00 | 0.00 | 97 | 1021.3 |
| 20260831063557 | 67 | 134 | 0.0 | 0.0 | 0.00 | 0.00 | 0.00 | 97 | 1021.2 |
| 20260831063057 | 67 | 134 | 0.0 | 0.0 | 0.00 | 0.00 | 0.00 | 97 | 1021.3 |
| 20260831062556 | 67 | 134 | 0.0 | 0.0 | 0.00 | 0.00 | 0.00 | 97 | 1021.2 |
| 20260831062100 | 68 | 134 | 0.0 | 0.0 | 0.00 | 0.00 | 0.00 | 97 | 1021.3 |
| 20260831061554 | 68 | 134 | 0.0 | 0.0 | 0.00 | 0.00 | 0.00 | 97 | 1021.3 |
| 20260831061053 | 68 | 134 | 0.0 | 0.0 | 0.00 | 0.00 | 0.00 | 97 | 1021.5 |
| 20260831060552 | 68 | 134 | 0.0 | 0.0 | 0.00 | 0.00 | 0.00 | 97 | 1021.4 |
| 20260831060052 | 68 | 134 | 0.0 | 0.0 | 0.00 | 0.00 | 0.00 | 97 | 1021.4 |
| 20260831055552 | 68 | 134 | 0.0 | 0.0 | 0.00 | 0.00 | 0.00 | 97 | 1021.4 |
| 20260831055052 | 68 | 134 | 0.0 | 0.0 | 0.00 | 0.00 | 0.00 | 97 | 1021.5 |
| 20260831054603 | 68 | 134 | 0.0 | 0.0 | 0.00 | 0.00 | 0.00 | 97 | 1021.5 |
| 20260831054051 | 68 | 134 | 0.0 | 0.0 | 0.00 | 0.00 | 0.00 | 97 | 1021.5 |
| 20260831053554 | 68 | 134 | 0.0 | 0.0 | 0.00 | 0.00 | 0.00 | 97 | 1021.5 |
| 20260831053051 | 68 | 134 | 0.0 | 0.0 | 0.00 | 0.00 | 0.00 | 97 | 1021.6 |
| 20260831052551 | 68 | 134 | 0.0 | 0.0 | 0.00 | 0.00 | 0.00 | 97 | 1021.6 |
| 20260831052049 | 68 | 134 | 0.0 | 0.0 | 0.00 | 0.00 | 0.00 | 96 | 1021.6 |
| 20260831051549 | 68 | 134 | 0.0 | 0.0 | 0.00 | 0.00 | 0.00 | 96 | 1021.7 |
| 20260831051048 | 69 | 134 | 0.0 | 0.0 | 0.00 | 0.00 | 0.00 | 96 | 1021.7 |
| 20260831050548 | 69 | 134 | 0.0 | 0.0 | 0.00 | 0.00 | 0.00 | 96 | 1021.7 |
| 20260831050048 | 69 | 134 | 0.0 | 0.0 | 0.00 | 0.00 | 0.00 | 96 | 1021.7 |
| 20260831045547 | 69 | 134 | 0.0 | 0.0 | 0.00 | 0.00 | 0.00 | 96 | 1021.6 |
| 20260831045047 | 69 | 134 | 0.0 | 0.0 | 0.00 | 0.00 | 0.00 | 96 | 1021.6 |
| 20260831044604 | 69 | 134 | 0.0 | 0.0 | 0.00 | 0.00 | 0.00 | 96 | 1021.5 |
| 20260831044046 | 69 | 134 | 0.0 | 0.0 | 0.00 | 0.00 | 0.00 | 96 | 1021.4 |
| 20260831043544 | 69 | 163 | 0.0 | 0.0 | 0.00 | 0.00 | 0.00 | 96 | 1021.4 |
| 20260831043044 | 69 | 163 | 0.0 | 0.0 | 0.00 | 0.00 | 0.00 | 96 | 1021.5 |
| 20260831042544 | 69 | 163 | 0.0 | 0.0 | 0.00 | 0.00 | 0.00 | 96 | 1021.6 |
| 20260831042046 | 70 | 163 | 0.0 | 0.0 | 0.00 | 0.00 | 0.00 | 96 | 1021.5 |
| 20260831041604 | 70 | 163 | 0.0 | 0.0 | 0.00 | 0.00 | 0.00 | 96 | 1021.5 |
| 20260831041042 | 70 | 163 | 0.0 | 0.0 | 0.00 | 0.00 | 0.00 | 96 | 1021.7 |
| 20260831040541 | 70 | 163 | 0.0 | 0.0 | 0.00 | 0.00 | 0.00 | 96 | 1021.7 |
| 20260831040043 | 70 | 163 | 0.0 | 0.0 | 0.00 | 0.00 | 0.00 | 96 | 1021.7 |
| 20260831035541 | 70 | 163 | 0.0 | 0.0 | 0.00 | 0.00 | 0.00 | 96 | 1021.7 |
| 20260831035042 | 70 | 163 | 0.0 | 0.0 | 0.00 | 0.00 | 0.00 | 96 | 1021.8 |
| 20260831034540 | 70 | 163 | 0.0 | 0.0 | 0.00 | 0.00 | 0.00 | 96 | 1021.8 |
| 20260831034044 | 70 | 163 | 0.0 | 0.0 | 0.00 | 0.00 | 0.00 | 96 | 1021.7 |
| 20260831033540 | 70 | 163 | 0.0 | 0.0 | 0.00 | 0.00 | 0.00 | 96 | 1021.7 |
| 20260831033040 | 70 | 163 | 0.0 | 0.0 | 0.00 | 0.00 | 0.00 | 96 | 1021.8 |
| 20260831032540 | 70 | 163 | 0.0 | 0.0 | 0.00 | 0.00 | 0.00 | 96 | 1021.8 |
| 20260831032039 | 70 | 163 | 0.0 | 0.0 | 0.00 | 0.00 | 0.00 | 96 | 1022.0 |
| 20260831031540 | 70 | 163 | 0.0 | 0.0 | 0.00 | 0.00 | 0.00 | 96 | 1021.9 |
| 20260831031038 | 70 | 163 | 0.0 | 0.0 | 0.00 | 0.00 | 0.00 | 95 | 1021.8 |
| 20260831030539 | 71 | 105 | 0.0 | 0.0 | 0.00 | 0.00 | 0.00 | 96 | 1021.9 |
| 20260831030047 | 71 | 105 | 0.0 | 0.0 | 0.00 | 0.00 | 0.00 | 96 | 1022.0 |
| 20260831025538 | 71 | 105 | 0.0 | 0.0 | 0.00 | 0.00 | 0.00 | 95 | 1022.0 |
| 20260831025038 | 71 | 105 | 0.0 | 0.0 | 0.00 | 0.00 | 0.00 | 95 | 1022.0 |
| 20260831024543 | 71 | 105 | 0.0 | 0.0 | 0.00 | 0.00 | 0.00 | 95 | 1022.0 |
| 20260831024038 | 71 | 105 | 0.0 | 0.0 | 0.00 | 0.00 | 0.00 | 95 | 1022.0 |
| 20260831023538 | 71 | 105 | 0.0 | 0.0 | 0.00 | 0.00 | 0.00 | 95 | 1021.9 |
| 20260831023040 | 71 | 105 | 0.0 | 0.0 | 0.00 | 0.00 | 0.00 | 95 | 1022.0 |
| 20260831022538 | 71 | 105 | 0.0 | 0.0 | 0.00 | 0.00 | 0.00 | 95 | 1021.9 |
| 20260831022038 | 71 | 105 | 0.0 | 0.0 | 0.00 | 0.00 | 0.00 | 95 | 1022.0 |
| 20260831021537 | 72 | 105 | 0.0 | 0.0 | 0.00 | 0.00 | 0.00 | 95 | 1022.2 |
| 20260831021037 | 72 | 105 | 0.0 | 0.0 | 0.00 | 0.00 | 0.00 | 95 | 1022.1 |
| 20260831020537 | 72 | 105 | 0.0 | 0.0 | 0.00 | 0.00 | 0.00 | 95 | 1021.9 |
| 20260831020036 | 72 | 105 | 0.0 | 0.0 | 0.00 | 0.00 | 0.00 | 95 | 1022.0 |
| 20260831015536 | 72 | 105 | 0.0 | 0.0 | 0.00 | 0.00 | 0.00 | 95 | 1021.9 |
| 20260831015036 | 72 | 105 | 0.0 | 0.0 | 0.00 | 0.00 | 0.00 | 94 | 1022.0 |
| 20260831014537 | 72 | 105 | 0.0 | 0.0 | 0.00 | 0.00 | 0.00 | 94 | 1022.0 |
| 20260831014036 | 72 | 105 | 0.0 | 0.0 | 0.00 | 0.00 | 0.00 | 94 | 1022.0 |
| 20260831013536 | 72 | 105 | 0.0 | 0.0 | 0.00 | 0.00 | 0.00 | 94 | 1021.9 |
| 20260831013040 | 72 | 105 | 0.0 | 0.0 | 0.00 | 0.00 | 0.00 | 94 | 1021.8 |
| 20260831012536 | 72 | 105 | 0.0 | 0.0 | 0.00 | 0.00 | 0.00 | 93 | 1021.6 |
| 20260831012036 | 72 | 105 | 0.0 | 0.0 | 0.00 | 0.00 | 0.00 | 93 | 1021.6 |
| 20260831011539 | 72 | 105 | 0.0 | 0.0 | 0.00 | 0.00 | 0.00 | 93 | 1021.4 |
| 20260831011035 | 73 | 105 | 0.0 | 0.0 | 0.00 | 0.00 | 0.00 | 93 | 1021.4 |
| 20260831010538 | 73 | 105 | 0.0 | 0.0 | 0.00 | 0.00 | 0.00 | 92 | 1021.4 |
| 20260831010035 | 73 | 105 | 0.0 | 0.0 | 0.00 | 0.00 | 0.00 | 92 | 1021.3 |
| 20260831005537 | 73 | 105 | 0.0 | 0.0 | 0.00 | 0.00 | 0.00 | 92 | 1021.3 |
| 20260831005035 | 73 | 105 | 0.0 | 0.0 | 0.00 | 0.00 | 0.00 | 92 | 1021.2 |
| 20260831004536 | 73 | 105 | 0.0 | 0.0 | 0.00 | 0.00 | 0.00 | 92 | 1021.1 |
| 20260831004037 | 73 | 105 | 0.0 | 0.0 | 0.00 | 0.00 | 0.00 | 91 | 1021.1 |
| 20260831003534 | 74 | 105 | 0.0 | 0.0 | 0.00 | 0.00 | 0.00 | 91 | 1021.2 |
| 20260831003041 | 73 | 105 | 0.0 | 0.0 | 0.00 | 0.00 | 0.00 | 90 | 1021.0 |
| 20260831002534 | 74 | 105 | 0.0 | 0.0 | 0.00 | 0.00 | 0.00 | 90 | 1021.0 |
| 20260831002034 | 74 | 105 | 0.0 | 0.0 | 0.00 | 0.00 | 0.00 | 89 | 1020.9 |
| 20260831001534 | 74 | 105 | 0.0 | 0.0 | 0.00 | 0.00 | 0.00 | 89 | 1021.0 |
| 20260831001036 | 74 | 105 | 0.0 | 0.0 | 0.00 | 0.00 | 0.00 | 89 | 1020.9 |
| 20260831000533 | 75 | 105 | 0.0 | 0.0 | 0.00 | 0.00 | 0.00 | 88 | 1020.8 |
| 20260831000035 | 75 | 105 | 0.0 | 0.0 | 0.00 | 0.00 | 0.00 | 87 | 1020.8 |
| 20260830235533 | 75 | 105 | 0.0 | 0.0 | 0.00 | 0.00 | 0.00 | 87 | 1020.8 |
| 20260830235033 | 76 | 105 | 0.0 | 0.0 | 0.00 | 0.00 | 0.00 | 86 | 1020.8 |
| 20260830234541 | 76 | 105 | 0.0 | 0.0 | 0.00 | 0.00 | 0.00 | 85 | 1020.8 |
| 20260830234033 | 76 | 105 | 0.0 | 0.0 | 0.00 | 0.00 | 0.00 | 85 | 1020.7 |
| 20260830233533 | 76 | 105 | 0.0 | 0.0 | 0.00 | 0.00 | 0.00 | 84 | 1020.7 |
| 20260830233033 | 77 | 105 | 0.0 | 0.0 | 0.00 | 0.00 | 0.00 | 83 | 1020.8 |
| 20260830232533 | 77 | 105 | 0.0 | 0.0 | 0.00 | 0.00 | 0.00 | 83 | 1020.9 |
| 20260830232033 | 77 | 105 | 0.0 | 0.0 | 0.00 | 0.00 | 0.00 | 83 | 1020.7 |
| 20260830231537 | 77 | 105 | 0.0 | 0.0 | 0.00 | 0.00 | 0.00 | 84 | 1020.7 |
| 20260830231031 | 78 | 105 | 0.0 | 0.0 | 0.00 | 0.00 | 0.00 | 83 | 1020.7 |
| 20260830230531 | 78 | 105 | 0.0 | 0.0 | 0.00 | 0.00 | 0.00 | 82 | 1020.7 |
| 20260830230041 | 78 | 105 | 0.0 | 0.0 | 0.00 | 0.00 | 0.00 | 83 | 1020.7 |
| 20260830225532 | 79 | 105 | 0.0 | 0.0 | 0.00 | 0.00 | 0.00 | 81 | 1020.5 |
| 20260830225031 | 79 | 105 | 0.0 | 0.0 | 0.00 | 0.00 | 0.00 | 81 | 1020.6 |
| 20260830224531 | 80 | 105 | 0.0 | 0.0 | 0.00 | 0.00 | 0.00 | 78 | 1020.6 |
| 20260830224031 | 80 | 105 | 0.0 | 0.0 | 0.00 | 0.00 | 0.00 | 79 | 1020.6 |
| 20260830223530 | 80 | 105 | 0.0 | 0.0 | 0.00 | 0.00 | 0.00 | 76 | 1020.6 |
| 20260830223030 | 79 | 134 | 0.0 | 0.0 | 0.00 | 0.00 | 0.00 | 78 | 1020.5 |
| 20260830222530 | 80 | 134 | 0.0 | 0.0 | 0.00 | 0.00 | 0.00 | 80 | 1020.6 |
| 20260830222030 | 79 | 170 | 0.0 | 0.0 | 0.00 | 0.00 | 0.00 | 79 | 1020.7 |
| 20260830221529 | 78 | 186 | 0.0 | 0.0 | 0.00 | 0.00 | 0.00 | 81 | 1020.7 |
| 20260830221129 | 78 | 185 | 0.0 | 0.0 | 0.00 | 0.00 | 0.00 | 82 | 1020.6 |
| 20260830220529 | 78 | 185 | 0.0 | 0.0 | 0.00 | 0.00 | 0.00 | 82 | 1020.7 |
| 20260830220029 | 78 | 185 | 0.0 | 0.0 | 0.00 | 0.00 | 0.00 | 83 | 1020.7 |
| 20260830215529 | 78 | 185 | 0.0 | 0.0 | 0.00 | 0.00 | 0.00 | 82 | 1020.8 |
| 20260830215032 | 79 | 185 | 0.0 | 0.0 | 0.00 | 0.00 | 0.00 | 82 | 1020.7 |
| 20260830214528 | 79 | 185 | 0.0 | 0.0 | 0.00 | 0.00 | 0.00 | 81 | 1020.6 |
| 20260830214027 | 80 | 225 | 0.0 | 0.0 | 0.00 | 0.00 | 0.00 | 79 | 1020.6 |
| 20260830213527 | 80 | 225 | 0.0 | 0.0 | 0.00 | 0.00 | 0.00 | 78 | 1020.7 |
| 20260830213027 | 80 | 225 | 0.0 | 1.0 | 0.00 | 0.00 | 0.00 | 77 | 1020.8 |
| 20260830212527 | 81 | 225 | 0.0 | 1.0 | 0.00 | 0.00 | 0.00 | 73 | 1020.8 |
| 20260830212027 | 82 | 225 | 0.0 | 0.0 | 0.00 | 0.00 | 0.00 | 71 | 1020.7 |
| 20260830211526 | 82 | 225 | 0.0 | 2.0 | 0.00 | 0.00 | 0.00 | 70 | 1020.7 |
| 20260830211026 | 82 | 227 | 0.0 | 2.0 | 0.00 | 0.00 | 0.00 | 70 | 1020.9 |
| 20260830210526 | 82 | 226 | 0.0 | 3.0 | 0.00 | 0.00 | 0.00 | 69 | 1020.8 |
| 20260830210026 | 83 | 134 | 0.0 | 4.0 | 0.00 | 0.00 | 0.00 | 70 | 1020.9 |
| 20260830205528 | 83 | 234 | 1.0 | 4.0 | 0.00 | 0.00 | 0.00 | 72 | 1021.0 |
| 20260830205025 | 82 | 132 | 1.0 | 3.0 | 0.00 | 0.00 | 0.00 | 71 | 1020.9 |
| 20260830204526 | 83 | 96 | 1.0 | 4.0 | 0.00 | 0.00 | 0.00 | 67 | 1020.8 |
| 20260830204024 | 83 | 193 | 1.0 | 3.0 | 0.00 | 0.00 | 0.00 | 69 | 1020.8 |
| 20260830203524 | 83 | 207 | 1.0 | 4.0 | 0.00 | 0.00 | 0.00 | 70 | 1020.9 |
| 20260830203033 | 83 | 250 | 1.0 | 6.0 | 0.00 | 0.00 | 0.00 | 70 | 1020.9 |
| 20260830202524 | 83 | 47 | 2.0 | 6.0 | 0.00 | 0.00 | 0.00 | 69 | 1020.9 |
| 20260830202025 | 82 | 98 | 1.0 | 3.0 | 0.00 | 0.00 | 0.00 | 72 | 1020.9 |
| 20260830201535 | 81 | 104 | 0.0 | 3.0 | 0.00 | 0.00 | 0.00 | 74 | 1020.9 |
| 20260830201022 | 82 | 107 | 1.0 | 3.0 | 0.00 | 0.00 | 0.00 | 70 | 1020.9 |
| 20260830200521 | 81 | 141 | 0.0 | 3.0 | 0.00 | 0.00 | 0.00 | 72 | 1021.0 |
| 20260830200021 | 81 | 111 | 0.0 | 6.0 | 0.00 | 0.00 | 0.00 | 72 | 1021.2 |
| 20260830195521 | 82 | 119 | 2.0 | 5.0 | 0.00 | 0.00 | 0.00 | 70 | 1021.2 |
| 20260830195020 | 83 | 138 | 2.0 | 5.0 | 0.00 | 0.00 | 0.00 | 70 | 1021.2 |
| 20260830194518 | 83 | 123 | 0.0 | 4.0 | 0.00 | 0.00 | 0.00 | 74 | 1021.3 |
| 20260830194026 | 82 | 94 | 1.0 | 4.0 | 0.00 | 0.00 | 0.00 | 74 | 1021.4 |
| 20260830193517 | 83 | 105 | 1.0 | 8.0 | 0.00 | 0.00 | 0.00 | 70 | 1021.5 |
| 20260830193018 | 82 | 115 | 3.0 | 8.0 | 0.00 | 0.00 | 0.00 | 70 | 1021.5 |
| 20260830192517 | 82 | 172 | 0.0 | 4.0 | 0.00 | 0.00 | 0.00 | 72 | 1021.5 |
| 20260830192016 | 82 | 144 | 0.0 | 4.0 | 0.00 | 0.00 | 0.00 | 73 | 1021.6 |
| 20260830191523 | 83 | 162 | 1.0 | 4.0 | 0.00 | 0.00 | 0.00 | 72 | 1021.8 |
| 20260830191016 | 83 | 85 | 1.0 | 3.0 | 0.00 | 0.00 | 0.00 | 72 | 1021.6 |
| 20260830190515 | 83 | 126 | 0.0 | 4.0 | 0.00 | 0.00 | 0.00 | 72 | 1021.7 |
| 20260830190016 | 83 | 214 | 0.0 | 4.0 | 0.00 | 0.00 | 0.00 | 71 | 1021.7 |
| 20260830185515 | 82 | 226 | 0.0 | 3.0 | 0.00 | 0.00 | 0.00 | 69 | 1021.8 |
| 20260830185015 | 83 | 257 | 1.0 | 6.0 | 0.00 | 0.00 | 0.00 | 67 | 1021.8 |
| 20260830184513 | 83 | 238 | 1.0 | 6.0 | 0.00 | 0.00 | 0.00 | 70 | 1021.9 |
| 20260830184014 | 84 | 197 | 0.0 | 6.0 | 0.00 | 0.00 | 0.00 | 72 | 1022.1 |
| 20260830183511 | 83 | 132 | 1.0 | 4.0 | 0.00 | 0.00 | 0.00 | 68 | 1022.2 |
| 20260830183011 | 83 | 113 | 0.0 | 7.0 | 0.00 | 0.00 | 0.00 | 71 | 1022.2 |
| 20260830182512 | 82 | 111 | 2.0 | 7.0 | 0.00 | 0.00 | 0.00 | 70 | 1022.4 |
| 20260830182012 | 83 | 128 | 0.0 | 3.0 | 0.00 | 0.00 | 0.00 | 72 | 1022.5 |
| 20260830181508 | 82 | 219 | 1.0 | 6.0 | 0.00 | 0.00 | 0.00 | 73 | 1022.4 |
| 20260830181008 | 82 | 71 | 1.0 | 6.0 | 0.00 | 0.00 | 0.00 | 71 | 1022.7 |
| 20260830180506 | 82 | 269 | 0.0 | 4.0 | 0.00 | 0.00 | 0.00 | 74 | 1022.7 |
| 20260830180006 | 82 | 130 | 2.0 | 4.0 | 0.00 | 0.00 | 0.00 | 71 | 1022.7 |
| 20260830175505 | 82 | 142 | 2.0 | 4.0 | 0.00 | 0.00 | 0.00 | 71 | 1022.9 |
| 20260830175005 | 81 | 67 | 1.0 | 4.0 | 0.00 | 0.00 | 0.00 | 73 | 1022.8 |
| 20260830174508 | 81 | 195 | 0.0 | 4.0 | 0.00 | 0.00 | 0.00 | 72 | 1022.8 |
| 20260830174005 | 82 | 204 | 1.0 | 4.0 | 0.00 | 0.00 | 0.00 | 76 | 1023.0 |
| 20260830173503 | 81 | 76 | 2.0 | 7.0 | 0.00 | 0.00 | 0.00 | 76 | 1023.1 |
| 20260830173002 | 81 | 58 | 3.0 | 7.0 | 0.00 | 0.00 | 0.00 | 73 | 1023.2 |
| 20260830172502 | 81 | 157 | 0.0 | 4.0 | 0.00 | 0.00 | 0.00 | 73 | 1023.3 |
| 20260830172001 | 80 | 68 | 1.0 | 4.0 | 0.00 | 0.00 | 0.00 | 75 | 1023.4 |
| 20260830171559 | 79 | 43 | 2.0 | 4.0 | 0.00 | 0.00 | 0.00 | 76 | 1023.4 |
| 20260830171059 | 78 | 63 | 1.0 | 3.0 | 0.00 | 0.00 | 0.00 | 77 | 1023.5 |
| 20260830170559 | 79 | 111 | 0.0 | 2.0 | 0.00 | 0.00 | 0.00 | 77 | 1023.6 |
| 20260830170059 | 78 | 224 | 0.0 | 0.0 | 0.00 | 0.00 | 0.00 | 81 | 1023.8 |
| 20260830165559 | 78 | 224 | 0.0 | 0.0 | 0.00 | 0.00 | 0.00 | 83 | 1023.8 |
| 20260830165058 | 78 | 224 | 0.0 | 0.0 | 0.00 | 0.00 | 0.00 | 81 | 1023.8 |
| 20260830164607 | 78 | 224 | 0.0 | 0.0 | 0.00 | 0.00 | 0.00 | 81 | 1023.9 |
| 20260830164057 | 78 | 224 | 0.0 | 0.0 | 0.00 | 0.00 | 0.00 | 80 | 1023.9 |
| 20260830163557 | 78 | 224 | 0.0 | 1.0 | 0.00 | 0.00 | 0.00 | 80 | 1024.0 |